EW6810 Weather Reports


Display with metric or nautical units.
time (UTC)temp
F
wind
direction
speed
MPH
gust
MPH
rain 1hr
in
rain 24hr
in
rain mn
in
humidity
%
barometer
mb
20260905191044 66 171 2.0 6.0 0.00 0.00 0.00 63 1014.4
20260905190546 66 179 0.0 5.0 0.00 0.00 0.00 64 1014.4
20260905190054 65 142 1.0 7.0 0.00 0.00 0.00 66 1014.4
20260905185542 66 191 1.0 7.0 0.00 0.00 0.00 66 1014.5
20260905185041 65 134 1.0 6.0 0.00 0.00 0.00 66 1014.6
20260905184546 65 121 1.0 5.0 0.00 0.00 0.00 68 1014.6
20260905184039 64 169 2.0 5.0 0.00 0.00 0.00 68 1014.7
20260905183540 63 215 2.0 6.0 0.00 0.00 0.00 68 1014.7
20260905183038 64 132 1.0 6.0 0.00 0.00 0.00 68 1014.8
20260905182538 64 133 1.0 5.0 0.00 0.00 0.00 67 1014.8
20260905182038 64 159 1.0 6.0 0.00 0.00 0.00 69 1014.8
20260905181536 64 158 1.0 4.0 0.00 0.00 0.00 72 1014.9
20260905181036 63 194 1.0 4.0 0.00 0.00 0.00 72 1014.9
20260905180537 63 3 0.0 9.0 0.00 0.00 0.00 73 1014.8
20260905180036 64 178 1.0 9.0 0.00 0.00 0.00 73 1014.9
20260905175537 64 168 1.0 4.0 0.00 0.00 0.00 74 1014.8
20260905175035 64 173 1.0 4.0 0.00 0.00 0.00 74 1014.8
20260905174539 64 163 2.0 4.0 0.00 0.00 0.00 73 1014.7
20260905174035 63 130 0.0 4.0 0.00 0.00 0.00 74 1014.7
20260905173531 62 130 1.0 4.0 0.00 0.00 0.00 74 1014.7
20260905173029 62 200 1.0 4.0 0.00 0.00 0.00 73 1014.7
20260905172528 62 222 1.0 4.0 0.00 0.00 0.00 73 1014.7
20260905172026 62 190 0.0 3.0 0.00 0.00 0.00 74 1014.7
20260905171534 61 128 1.0 3.0 0.00 0.00 0.00 75 1014.8
20260905171024 61 128 0.0 3.0 0.00 0.00 0.00 76 1014.7
20260905170524 61 20 0.0 3.0 0.00 0.00 0.00 77 1014.7
20260905170021 60 23 0.0 3.0 0.00 0.00 0.00 78 1014.7
20260905165519 59 125 0.0 2.0 0.00 0.00 0.00 79 1014.8
20260905165019 59 125 0.0 2.0 0.00 0.00 0.00 80 1014.8
20260905164518 58 128 0.0 2.0 0.00 0.00 0.00 80 1014.8
20260905164017 58 11 0.0 2.0 0.00 0.00 0.00 81 1014.8
20260905163515 58 11 0.0 2.0 0.00 0.00 0.00 81 1014.7
20260905163014 58 11 0.0 2.0 0.00 0.00 0.00 81 1014.7
20260905162513 57 11 1.0 3.0 0.00 0.00 0.00 82 1014.8
20260905162010 57 11 2.0 3.0 0.00 0.00 0.00 84 1014.8
20260905161509 56 11 0.0 2.0 0.00 0.00 0.00 85 1014.8
20260905161008 56 11 0.0 2.0 0.00 0.00 0.00 86 1014.8
20260905160507 55 12 1.0 3.0 0.00 0.00 0.00 88 1014.8
20260905160015 54 12 1.0 3.0 0.00 0.00 0.00 90 1014.8
20260905155510 52 12 0.0 2.0 0.00 0.00 0.00 91 1014.8
20260905155004 52 12 1.0 3.0 0.00 0.00 0.00 91 1014.9
20260905154502 52 12 1.0 3.0 0.00 0.00 0.00 91 1014.8
20260905154001 52 13 1.0 4.0 0.00 0.00 0.00 91 1014.7
20260905153601 52 3 1.0 4.0 0.00 0.00 0.00 91 1014.8
20260905153110 52 31 2.0 4.0 0.00 0.00 0.00 91 1014.8
20260905152559 52 358 1.0 4.0 0.00 0.00 0.00 91 1014.7
20260905152058 52 351 1.0 4.0 0.00 0.00 0.00 91 1014.6
20260905151559 52 238 0.0 1.0 0.00 0.00 0.00 91 1014.6
20260905151057 52 238 0.0 3.0 0.00 0.00 0.00 91 1014.5
20260905150559 52 238 0.0 3.0 0.00 0.00 0.00 91 1014.5
20260905150057 52 257 0.0 2.0 0.00 0.00 0.00 91 1014.5
20260905145555 52 257 0.0 2.0 0.00 0.00 0.00 91 1014.3
20260905145055 52 257 1.0 2.0 0.00 0.00 0.00 91 1014.4
20260905144556 52 257 0.0 2.0 0.00 0.00 0.00 91 1014.4
20260905144058 52 257 0.0 2.0 0.00 0.00 0.00 91 1014.4
20260905143554 53 256 0.0 2.0 0.00 0.00 0.00 91 1014.5
20260905143054 53 346 0.0 3.0 0.00 0.00 0.00 91 1014.5
20260905142554 53 1 0.0 3.0 0.00 0.00 0.00 91 1014.4
20260905142053 53 358 1.0 3.0 0.00 0.00 0.00 91 1014.4
20260905141601 53 275 0.0 2.0 0.00 0.00 0.00 91 1014.4
20260905141057 53 275 1.0 2.0 0.00 0.00 0.00 91 1014.4
20260905140553 53 275 0.0 3.0 0.00 0.00 0.00 91 1014.4
20260905140100 53 275 0.0 3.0 0.00 0.00 0.00 91 1014.4
20260905135552 53 299 0.0 2.0 0.00 0.00 0.00 91 1014.4
20260905135051 53 299 0.0 2.0 0.00 0.00 0.00 91 1014.3
20260905134551 53 299 0.0 2.0 0.00 0.00 0.00 91 1014.3
20260905134049 53 299 0.0 1.0 0.00 0.00 0.00 91 1014.3
20260905133550 53 299 0.0 2.0 0.00 0.00 0.00 91 1014.3
20260905133049 53 299 0.0 2.0 0.00 0.00 0.00 91 1014.3
20260905132549 53 299 0.0 2.0 0.00 0.00 0.00 91 1014.4
20260905132052 53 299 0.0 2.0 0.00 0.00 0.00 91 1014.4
20260905131559 53 299 0.0 2.0 0.00 0.00 0.00 91 1014.4
20260905131049 53 299 0.0 1.0 0.00 0.00 0.00 91 1014.4
20260905130550 53 299 0.0 1.0 0.00 0.00 0.00 91 1014.4
20260905130047 53 299 0.0 2.0 0.00 0.00 0.00 91 1014.4
20260905125547 53 299 0.0 2.0 0.00 0.00 0.00 91 1014.5
20260905125047 53 4 0.0 2.0 0.00 0.00 0.00 91 1014.5
20260905124546 53 4 0.0 3.0 0.00 0.00 0.00 91 1014.3
20260905124045 54 3 1.0 4.0 0.00 0.00 0.00 91 1014.1
20260905123545 54 6 2.0 4.0 0.00 0.00 0.00 91 1014.1
20260905123043 54 25 1.0 3.0 0.00 0.00 0.00 91 1014.1
20260905122545 54 311 0.0 1.0 0.00 0.00 0.00 91 1014.1
20260905122043 54 311 0.0 0.0 0.00 0.00 0.00 91 1014.2
20260905121543 54 311 0.0 2.0 0.00 0.00 0.00 91 1014.2
20260905121042 54 311 1.0 2.0 0.00 0.00 0.00 91 1014.1
20260905120542 54 310 0.0 2.0 0.00 0.00 0.00 91 1014.1
20260905120042 54 310 0.0 2.0 0.00 0.00 0.00 91 1014.0
20260905115541 54 311 0.0 3.0 0.00 0.00 0.00 91 1014.0
20260905115041 54 311 0.0 3.0 0.00 0.00 0.00 91 1014.0
20260905114548 54 250 0.0 1.0 0.00 0.00 0.00 91 1014.1
20260905114044 54 250 0.0 2.0 0.00 0.00 0.00 91 1014.0
20260905113641 54 250 0.0 2.0 0.00 0.00 0.00 91 1014.0
20260905113040 54 251 0.0 5.0 0.00 0.00 0.00 91 1014.0
20260905112539 54 251 1.0 5.0 0.00 0.00 0.00 91 1014.0
20260905112038 54 42 0.0 2.0 0.00 0.00 0.00 91 1014.0
20260905111543 54 42 0.0 2.0 0.00 0.00 0.00 91 1013.9
20260905111039 54 42 0.0 1.0 0.00 0.00 0.00 91 1013.9
20260905110538 54 42 0.0 2.0 0.00 0.00 0.00 91 1013.9
20260905110038 54 42 0.0 2.0 0.00 0.00 0.00 91 1013.7
20260905105537 54 42 0.0 2.0 0.00 0.00 0.00 91 1013.7
20260905105037 54 42 0.0 3.0 0.00 0.00 0.00 91 1013.7
20260905104540 54 43 0.0 3.0 0.00 0.00 0.00 91 1013.8
20260905104037 54 19 0.0 2.0 0.00 0.00 0.00 91 1013.7
20260905103540 54 22 0.0 4.0 0.00 0.00 0.00 91 1013.8
20260905103039 54 23 2.0 4.0 0.00 0.00 0.00 91 1013.7
20260905102536 54 356 0.0 3.0 0.00 0.00 0.00 91 1013.7
20260905102035 54 356 0.0 2.0 0.00 0.00 0.00 91 1013.7
20260905101537 54 356 0.0 2.0 0.00 0.00 0.00 91 1013.7
20260905101035 54 340 0.0 4.0 0.00 0.00 0.00 91 1013.7
20260905100535 54 340 1.0 4.0 0.00 0.00 0.00 91 1013.7
20260905100035 55 320 0.0 4.0 0.00 0.00 0.00 90 1013.7
20260905095535 55 37 0.0 4.0 0.00 0.00 0.00 90 1013.9
20260905095034 55 13 0.0 3.0 0.00 0.00 0.00 90 1013.9
20260905094533 55 14 0.0 3.0 0.00 0.00 0.00 91 1013.9
20260905094033 55 333 0.0 2.0 0.00 0.00 0.00 90 1013.9
20260905093533 55 333 0.0 2.0 0.00 0.00 0.00 90 1013.9
20260905093032 55 321 0.0 2.0 0.00 0.00 0.00 90 1014.0
20260905092534 55 319 0.0 6.0 0.00 0.00 0.00 90 1013.9
20260905092031 55 319 1.0 6.0 0.00 0.00 0.00 90 1013.9
20260905091531 55 296 1.0 4.0 0.00 0.00 0.00 90 1013.9
20260905091031 55 287 0.0 3.0 0.00 0.00 0.00 90 1013.9
20260905090530 55 286 1.0 3.0 0.00 0.00 0.00 90 1013.9
20260905090031 55 294 0.0 5.0 0.00 0.00 0.00 90 1013.8
20260905085530 55 288 1.0 5.0 0.00 0.00 0.00 89 1013.9
20260905085031 55 264 0.0 3.0 0.00 0.00 0.00 89 1013.9
20260905084528 55 265 0.0 8.0 0.00 0.00 0.00 89 1013.9
20260905084035 55 275 1.0 8.0 0.00 0.00 0.00 89 1013.8
20260905083527 56 261 0.0 2.0 0.00 0.00 0.00 89 1013.8
20260905083034 56 257 0.0 2.0 0.00 0.00 0.00 89 1013.8
20260905082526 56 257 0.0 2.0 0.00 0.00 0.00 89 1013.7
20260905082028 56 257 0.0 2.0 0.00 0.00 0.00 89 1013.6
20260905081525 56 257 0.0 2.0 0.00 0.00 0.00 89 1013.5
20260905081025 56 257 0.0 2.0 0.00 0.00 0.00 89 1013.6
20260905080524 56 256 0.0 2.0 0.00 0.00 0.00 89 1013.6
20260905080026 56 256 0.0 2.0 0.00 0.00 0.00 89 1013.6
20260905075525 56 256 0.0 3.0 0.00 0.00 0.00 89 1013.6
20260905075026 56 256 0.0 3.0 0.00 0.00 0.00 88 1013.6
20260905074524 56 224 0.0 2.0 0.00 0.00 0.00 89 1013.5
20260905074024 56 224 0.0 4.0 0.00 0.00 0.00 89 1013.5
20260905073523 56 223 1.0 4.0 0.00 0.00 0.00 89 1013.4
20260905073026 56 3 1.0 2.0 0.00 0.00 0.00 89 1013.4
20260905072527 56 358 0.0 1.0 0.00 0.00 0.00 89 1013.4
20260905072023 56 358 0.0 1.0 0.00 0.00 0.00 89 1013.4
20260905071526 56 358 0.0 2.0 0.00 0.00 0.00 89 1013.3
20260905071020 56 358 0.0 2.0 0.00 0.00 0.00 89 1013.3
20260905070520 56 358 0.0 1.0 0.00 0.00 0.00 88 1013.3
20260905070019 56 358 0.0 2.0 0.00 0.00 0.00 88 1013.3
20260905065518 56 358 1.0 2.0 0.00 0.00 0.00 88 1013.2
20260905065024 56 288 0.0 2.0 0.00 0.00 0.00 88 1013.2
20260905064518 56 288 0.0 2.0 0.00 0.00 0.00 88 1013.2
20260905064024 56 288 0.0 1.0 0.00 0.00 0.00 88 1013.2
20260905063617 56 288 0.0 1.0 0.00 0.00 0.00 88 1013.1
20260905063017 56 286 0.0 1.0 0.00 0.00 0.00 88 1013.2
20260905062518 56 286 0.0 1.0 0.00 0.00 0.00 88 1013.2
20260905062017 56 286 0.0 3.0 0.00 0.00 0.00 88 1013.2
20260905061516 56 286 0.0 3.0 0.00 0.00 0.00 88 1013.1
20260905061016 56 331 0.0 5.0 0.00 0.00 0.00 88 1013.1
20260905060515 56 338 0.0 5.0 0.00 0.00 0.00 88 1013.1
20260905060015 56 262 0.0 2.0 0.00 0.00 0.00 88 1013.1
20260905055515 56 262 0.0 5.0 0.00 0.00 0.00 88 1013.1
20260905055015 56 262 1.0 5.0 0.00 0.00 0.00 88 1013.1
20260905054515 56 235 0.0 4.0 0.00 0.00 0.00 88 1013.1
20260905054016 56 287 0.0 2.0 0.00 0.00 0.00 88 1013.1
20260905053516 57 287 0.0 3.0 0.00 0.00 0.00 88 1013.1
20260905053014 57 298 0.0 2.0 0.00 0.00 0.00 88 1013.1
20260905052613 57 299 0.0 3.0 0.00 0.00 0.00 88 1013.1
20260905052013 57 299 0.0 3.0 0.00 0.00 0.00 88 1013.0
20260905051523 57 290 0.0 2.0 0.00 0.00 0.00 88 1013.0
20260905051113 57 290 0.0 2.0 0.00 0.00 0.00 88 1013.0
20260905050513 57 290 0.0 2.0 0.00 0.00 0.00 88 1013.1
20260905050016 57 290 0.0 5.0 0.00 0.00 0.00 88 1013.0
20260905045512 57 290 0.0 5.0 0.00 0.00 0.00 88 1013.1
20260905045012 57 278 1.0 3.0 0.00 0.00 0.00 87 1013.1
20260905044513 57 191 0.0 1.0 0.00 0.00 0.00 87 1013.1
20260905044011 57 191 0.0 1.0 0.00 0.00 0.00 87 1013.0
20260905043511 57 191 0.0 2.0 0.00 0.00 0.00 87 1013.0
20260905043010 57 191 0.0 2.0 0.00 0.00 0.00 86 1013.0
20260905042509 57 191 0.0 2.0 0.00 0.00 0.00 87 1012.9
20260905042011 57 191 0.0 2.0 0.00 0.00 0.00 86 1012.9
20260905041510 57 191 0.0 2.0 0.00 0.00 0.00 86 1012.9
20260905041009 57 191 0.0 2.0 0.00 0.00 0.00 86 1012.8
20260905040511 58 191 0.0 1.0 0.00 0.00 0.00 86 1012.8
20260905040009 58 191 0.0 1.0 0.00 0.00 0.00 86 1012.8
20260905035508 58 191 0.0 1.0 0.00 0.00 0.00 86 1012.8
20260905035008 58 191 0.0 1.0 0.00 0.00 0.00 86 1012.9
20260905034510 58 191 0.0 1.0 0.00 0.00 0.00 86 1012.8
20260905034007 58 191 0.0 1.0 0.00 0.00 0.00 86 1012.8
20260905033507 58 191 0.0 1.0 0.00 0.00 0.00 86 1012.7
20260905033007 58 191 0.0 1.0 0.00 0.00 0.00 86 1012.7
20260905032506 58 191 0.0 1.0 0.00 0.00 0.00 86 1012.6
20260905032005 59 191 0.0 2.0 0.00 0.00 0.00 86 1012.6
20260905031507 59 191 0.0 2.0 0.00 0.00 0.00 86 1012.5
20260905031004 59 191 0.0 1.0 0.00 0.00 0.00 86 1012.5
20260905030504 59 191 0.0 1.0 0.00 0.00 0.00 86 1012.4
20260905030004 59 191 0.0 2.0 0.00 0.00 0.00 86 1012.4
20260905025503 59 191 0.0 2.0 0.00 0.00 0.00 86 1012.3
20260905025004 60 191 0.0 1.0 0.00 0.00 0.00 86 1012.3
20260905024507 60 191 0.0 1.0 0.00 0.00 0.00 86 1012.2
20260905024003 60 191 0.0 0.0 0.00 0.00 0.00 86 1012.3
20260905023502 60 191 0.0 1.0 0.00 0.00 0.00 86 1012.3
20260905023002 60 191 0.0 1.0 0.00 0.00 0.00 86 1012.2
20260905022503 60 191 0.0 0.0 0.00 0.00 0.00 86 1012.2
20260905022004 60 191 0.0 0.0 0.00 0.00 0.00 86 1012.2
20260905021602 60 191 0.0 1.0 0.00 0.00 0.00 86 1012.1
20260905021101 60 191 0.0 1.0 0.00 0.00 0.00 86 1012.1
20260905020601 60 191 0.0 0.0 0.00 0.00 0.00 85 1012.1
20260905015559 60 191 0.0 1.0 0.00 0.00 0.00 85 1012.0
20260905015059 60 191 0.0 1.0 0.00 0.00 0.00 85 1011.9
20260905014558 60 191 0.0 1.0 0.00 0.00 0.00 85 1011.9
20260905014057 60 191 0.0 1.0 0.00 0.00 0.00 85 1011.9
20260905013557 60 191 0.0 1.0 0.00 0.00 0.00 85 1011.8
20260905013056 60 191 0.0 1.0 0.00 0.00 0.00 85 1011.8
20260905012558 60 191 0.0 2.0 0.00 0.00 0.00 85 1011.8
20260905012058 60 191 0.0 2.0 0.00 0.00 0.00 85 1011.9
20260905011559 60 191 0.0 2.0 0.00 0.00 0.00 85 1011.9
20260905011100 60 191 0.0 2.0 0.00 0.00 0.00 84 1011.9
20260905010557 60 191 0.0 1.0 0.00 0.00 0.00 84 1011.8
20260905010106 61 191 0.0 1.0 0.00 0.00 0.00 83 1011.8
20260905005556 61 191 0.0 1.0 0.00 0.00 0.00 83 1011.9
20260905005055 61 191 0.0 2.0 0.00 0.00 0.00 81 1011.8
20260905004556 61 191 0.0 2.0 0.00 0.00 0.00 81 1011.8
20260905004055 61 191 0.0 2.0 0.00 0.00 0.00 80 1011.8
20260905003555 61 191 0.0 2.0 0.00 0.00 0.00 80 1011.7
20260905003054 61 191 1.0 2.0 0.00 0.00 0.00 80 1011.7
20260905002553 61 191 0.0 2.0 0.00 0.00 0.00 80 1011.6
20260905002052 61 191 1.0 2.0 0.00 0.00 0.00 80 1011.6
20260905001556 61 191 0.0 3.0 0.00 0.00 0.00 80 1011.5
20260905001056 61 191 1.0 3.0 0.00 0.00 0.00 80 1011.5
20260905000555 61 191 1.0 3.0 0.00 0.00 0.00 80 1011.5
20260904235554 61 239 0.0 2.0 0.00 0.00 0.00 79 1011.5
20260904235053 61 239 0.0 2.0 0.00 0.00 0.00 79 1011.5
20260904234551 61 239 1.0 3.0 0.00 0.00 0.00 78 1011.5
20260904234052 61 240 1.0 4.0 0.00 0.00 0.00 78 1011.5
20260904233551 61 201 1.0 5.0 0.00 0.00 0.00 78 1011.4
20260904233051 62 192 1.0 5.0 0.00 0.00 0.00 78 1011.4
20260904232551 62 215 1.0 4.0 0.00 0.00 0.00 77 1011.5
20260904232050 62 27 0.0 3.0 0.00 0.00 0.00 77 1011.4
20260904231650 62 178 0.0 4.0 0.00 0.00 0.00 75 1011.4
20260904231050 63 183 2.0 4.0 0.00 0.00 0.00 75 1011.5
20260904230549 62 153 0.0 3.0 0.00 0.00 0.00 76 1011.4
20260904230105 62 38 0.0 3.0 0.00 0.00 0.00 76 1011.4
20260904225547 62 137 1.0 4.0 0.00 0.00 0.00 76 1011.5
20260904225047 62 134 1.0 4.0 0.00 0.00 0.00 76 1011.5
20260904224548 61 206 1.0 4.0 0.00 0.00 0.00 79 1011.5
20260904224048 61 198 1.0 3.0 0.00 0.00 0.00 78 1011.6
20260904223545 60 210 1.0 3.0 0.00 0.00 0.00 78 1011.5
20260904223056 61 136 0.0 3.0 0.00 0.00 0.00 78 1011.5
20260904222543 60 135 0.0 3.0 0.00 0.00 0.00 79 1011.5
20260904222043 60 137 1.0 3.0 0.00 0.00 0.00 78 1011.4
20260904221545 60 137 1.0 3.0 0.00 0.00 0.00 78 1011.4
20260904221043 60 134 0.0 3.0 0.00 0.00 0.00 79 1011.4
20260904220546 59 134 1.0 3.0 0.00 0.00 0.00 78 1011.4
20260904220054 59 140 1.0 3.0 0.00 0.00 0.00 79 1011.4
20260904215543 59 140 0.0 3.0 0.00 0.00 0.00 79 1011.3
20260904215042 59 138 1.0 3.0 0.00 0.00 0.00 77 1011.3
20260904214543 60 144 1.0 6.0 0.00 0.00 0.00 77 1011.4
20260904214042 60 158 2.0 6.0 0.00 0.00 0.00 77 1011.3
20260904213542 60 167 0.0 3.0 0.00 0.00 0.00 77 1011.3
20260904213042 60 153 0.0 4.0 0.00 0.00 0.00 78 1011.4
20260904212542 60 201 1.0 4.0 0.00 0.00 0.00 77 1011.3
20260904212042 60 59 1.0 3.0 0.00 0.00 0.00 77 1011.3
20260904211544 60 58 0.0 3.0 0.00 0.00 0.00 79 1011.3
20260904211041 60 203 0.0 3.0 0.00 0.00 0.00 79 1011.2
20260904210541 60 203 1.0 4.0 0.00 0.00 0.00 77 1011.2
20260904210047 60 130 1.0 4.0 0.00 0.00 0.00 76 1011.1
20260904205541 60 156 1.0 4.0 0.00 0.00 0.00 76 1011.1
20260904205041 60 176 0.0 4.0 0.00 0.00 0.00 77 1011.1
20260904204540 60 152 0.0 4.0 0.00 0.00 0.00 77 1011.0
20260904204039 60 203 0.0 3.0 0.00 0.00 0.00 78 1010.9
20260904203539 60 75 1.0 4.0 0.00 0.00 0.00 79 1010.9
20260904203038 60 180 0.0 4.0 0.00 0.00 0.00 80 1011.0
20260904202537 60 101 0.0 2.0 0.00 0.00 0.00 80 1010.9
20260904202038 59 151 0.0 2.0 0.00 0.00 0.00 79 1010.9
20260904201548 60 151 0.0 6.0 0.00 0.00 0.00 81 1010.9
20260904201036 59 204 1.0 6.0 0.00 0.00 0.00 81 1010.9
20260904200537 59 207 1.0 4.0 0.00 0.00 0.00 80 1010.9
20260904200050 59 149 2.0 4.0 0.00 0.00 0.00 79 1011.0
20260904195537 59 169 0.0 2.0 0.00 0.00 0.00 80 1011.0
20260904195036 59 168 0.0 2.0 0.00 0.00 0.00 80 1011.1
20260904194543 59 200 0.0 3.0 0.00 0.00 0.00 81 1011.0
20260904194034 58 202 1.0 4.0 0.00 0.00 0.00 80 1011.1
20260904193536 58 191 1.0 4.0 0.00 0.00 0.00 81 1011.1
20260904193032 59 166 1.0 3.0 0.00 0.00 0.00 81 1011.2
20260904192534 58 223 0.0 4.0 0.00 0.00 0.00 83 1011.3
20260904192031 58 178 1.0 4.0 0.00 0.00 0.00 82 1011.3
20260904191531 58 159 0.0 4.0 0.00 0.00 0.00 81 1011.4